x

Aberporth (03502) Weather Station

6:00am - Sun 21st Dec 2014 All times are GMT.

  • Wind
    22mph, 32mph gusts
  • Air Temp 45°f
  • Sea Pressure 1026mb
  • Aberporth
  • Aberporth

More Historic Weather Station data

Upgrade to MSW Pro to gain access to the past 30 days of data for over 8000 Wavebouys and Weather Stations around the globe.

Join Pro

Comparision Forecast

View Surf forecast
   
Sun 12/21 6:00am 22 32 mph 1026mb 45f
5:00am 24 34 mph 1027mb 46f
4:00am 22 33 mph 1028mb 45f
3:00am 21 29 mph 1029mb 45f
2:00am 19
mph
1029mb 45f
1:00am 15
mph
1029mb 45f
12:00am 16
mph
1030mb 46f
Sat 12/20 11:00pm 14 26 mph 1030mb 45f
10:00pm 13
mph
1030mb 46f
9:00pm 10
mph
1030mb 45f
8:00pm 13
mph
1031mb 47f
7:00pm 16
mph
1031mb 47f
6:00pm 14
mph
1030mb 47f
5:00pm 14
mph
1030mb 47f
4:00pm 16
mph
1030mb 46f
3:00pm 15
mph
1029mb 47f
2:00pm 23 33 mph 1029mb 47f
1:00pm 24 38 mph 1029mb 47f
12:00pm 23 33 mph 1028mb 47f
11:00am 26 38 mph 1028mb 46f
10:00am 28 41 mph 1027mb 46f
9:00am 30 40 mph 1026mb 46f
8:00am 30 43 mph 1026mb 46f
7:00am 25 40 mph 1025mb 46f
6:00am 25 39 mph 1025mb 46f
5:00am 29 39 mph 1025mb 46f
4:00am 30 40 mph 1025mb 46f
3:00am 30 40 mph 1025mb 46f
2:00am 31 43 mph 1024mb 46f
1:00am 29 40 mph 1024mb 46f
12:00am 28 40 mph 1024mb 46f
Fri 12/19 11:00pm 30 40 mph 1024mb 46f
10:00pm 28 37 mph 1024mb 46f
9:00pm 25 37 mph 1023mb 46f
8:00pm 23 31 mph 1023mb 46f
7:00pm 23 32 mph 1022mb 46f
6:00pm 23 36 mph 1022mb 46f
5:00pm 25 36 mph 1021mb 46f
4:00pm 25 36 mph 1020mb 46f
3:00pm 28 36 mph 1019mb 46f
2:00pm 23 38 mph 1018mb 46f
1:00pm 26 33 mph 1018mb 46f
12:00pm 26 36 mph 1018mb 46f
11:00am 26 37 mph 1017mb 46f
10:00am 26 36 mph 1016mb 45f
9:00am 23 34 mph 1015mb 45f
8:00am 24 36 mph 1014mb 45f
7:00am 22 33 mph 1013mb 46f
6:00am 26 39 mph 1012mb 46f
5:00am 26 36 mph 1011mb 46f
4:00am 22 31 mph 1010mb 47f
3:00am 25 31 mph 1009mb 48f
2:00am 18
mph
1008mb 48f
1:00am 19 45 mph 1008mb 49f
12:00am 31 46 mph 1007mb 53f
Thu 12/18 11:00pm 34 47 mph 1007mb 53f
10:00pm 36 54 mph 1007mb 53f
9:00pm 34 48 mph 1007mb 53f
8:00pm 37 52 mph 1007mb 53f
7:00pm 36 49 mph 1007mb 53f
6:00pm 34 54 mph 1007mb 53f
5:00pm 38 53 mph 1007mb 53f
4:00pm 39 56 mph 1007mb 53f
3:00pm 39 56 mph 1007mb 53f
2:00pm 40 56 mph 1007mb 53f
1:00pm 39 54 mph 1007mb 53f
12:00pm 40 54 mph 1007mb 53f
11:00am 37 56 mph 1008mb 53f
10:00am 34 48 mph 1008mb 53f
9:00am 31 44 mph 1008mb 52f
8:00am 33 46 mph 1008mb 52f
7:00am 31 47 mph 1008mb 52f
6:00am 32 44 mph 1008mb 52f
5:00am 33 53 mph 1008mb 52f
4:00am 36 47 mph 1008mb 52f
3:00am 36 47 mph 1008mb 52f
2:00am 36 49 mph 1009mb 53f
1:00am 34 44 mph 1008mb 52f
12:00am 30 44 mph 1009mb 52f
Wed 12/17 11:00pm 29 40 mph 1008mb 52f
10:00pm 29 38 mph 1008mb 52f
9:00pm 29 40 mph 1008mb 53f
8:00pm 30 39 mph 1008mb 53f
7:00pm 30 39 mph 1008mb 52f
6:00pm 28 39 mph 1007mb 52f
5:00pm 29 37 mph 1007mb 52f
4:00pm 25 36 mph 1006mb 52f
3:00pm 28 36 mph 1006mb 52f
2:00pm 26 40 mph 1007mb 52f
1:00pm 26 37 mph 1007mb 52f
12:00pm 25 34 mph 1007mb 52f
11:00am 25 36 mph 1007mb 52f
10:00am 26 40 mph 1007mb 52f
9:00am 31 40 mph 1006mb 51f
8:00am 28 39 mph 1006mb 51f